Year,Month,Day,Hour,Minute,Value (Times are PST for temperature in C)
2014,06,21,00,00,11.80
2014,06,21,00,01,11.80
2014,06,21,00,02,11.80
2014,06,21,00,03,11.80
2014,06,21,00,04,11.80
2014,06,21,00,05,11.80
2014,06,21,00,06,11.80
2014,06,21,00,07,11.80
2014,06,21,00,08,11.70
2014,06,21,00,09,11.70
2014,06,21,00,10,11.70
2014,06,21,00,11,11.70
2014,06,21,00,12,11.70
2014,06,21,00,13,11.70
2014,06,21,00,14,11.70
2014,06,21,00,15,11.70
2014,06,21,00,16,11.60
2014,06,21,00,17,11.60
2014,06,21,00,18,11.60
2014,06,21,00,19,11.60
2014,06,21,00,20,11.60
2014,06,21,00,21,11.60
2014,06,21,00,22,11.60
2014,06,21,00,23,11.60
2014,06,21,00,24,11.60
2014,06,21,00,25,11.60
2014,06,21,00,26,11.60
2014,06,21,00,27,11.60
2014,06,21,00,28,11.60
2014,06,21,00,29,11.60
2014,06,21,00,30,11.60
2014,06,21,00,31,11.60
2014,06,21,00,32,11.60
2014,06,21,00,33,11.60
2014,06,21,00,34,11.60
2014,06,21,00,35,11.50
2014,06,21,00,36,11.40
2014,06,21,00,37,11.40
2014,06,21,00,38,11.40
2014,06,21,00,39,11.40
2014,06,21,00,40,11.40
2014,06,21,00,41,11.40
2014,06,21,00,42,11.30
2014,06,21,00,43,11.30
2014,06,21,00,44,11.30
2014,06,21,00,45,11.20
2014,06,21,00,46,11.20
2014,06,21,00,47,11.20
2014,06,21,00,48,11.20
2014,06,21,00,49,11.20
2014,06,21,00,50,11.20
2014,06,21,00,51,11.10
2014,06,21,00,52,11.10
2014,06,21,00,53,11.10
2014,06,21,00,54,11.10
2014,06,21,00,55,11.10
2014,06,21,00,56,11.10
2014,06,21,00,57,11.10
2014,06,21,00,58,11.10
2014,06,21,00,59,11.10
2014,06,21,01,00,11.00
2014,06,21,01,01,10.90
2014,06,21,01,02,10.90
2014,06,21,01,03,10.90
2014,06,21,01,04,10.90
2014,06,21,01,05,10.90
2014,06,21,01,06,10.90
2014,06,21,01,07,10.90
2014,06,21,01,08,10.90
2014,06,21,01,09,10.90
2014,06,21,01,10,10.90
2014,06,21,01,11,10.90
2014,06,21,01,12,10.90
2014,06,21,01,13,10.90
2014,06,21,01,14,10.80
2014,06,21,01,15,10.80
2014,06,21,01,16,10.80
2014,06,21,01,17,10.80
2014,06,21,01,18,10.80
2014,06,21,01,19,10.80
2014,06,21,01,20,10.80
2014,06,21,01,21,10.80
2014,06,21,01,22,10.70
2014,06,21,01,23,10.70
2014,06,21,01,24,10.70
2014,06,21,01,25,10.70
2014,06,21,01,26,10.70
2014,06,21,01,27,10.70
2014,06,21,01,28,10.70
2014,06,21,01,29,10.70
2014,06,21,01,30,10.70
2014,06,21,01,31,10.70
2014,06,21,01,32,10.70
2014,06,21,01,33,10.70
2014,06,21,01,34,10.60
2014,06,21,01,35,10.60
2014,06,21,01,36,10.60
2014,06,21,01,37,10.60
2014,06,21,01,38,10.60
2014,06,21,01,39,10.60
2014,06,21,01,40,10.60
2014,06,21,01,41,10.60
2014,06,21,01,42,10.60
2014,06,21,01,43,10.60
2014,06,21,01,44,10.60
2014,06,21,01,45,10.60
2014,06,21,01,46,10.60
2014,06,21,01,47,10.60
2014,06,21,01,48,10.60
2014,06,21,01,49,10.60
2014,06,21,01,50,10.50
2014,06,21,01,51,10.40
2014,06,21,01,52,10.40
2014,06,21,01,53,10.40
2014,06,21,01,54,10.40
2014,06,21,01,55,10.50
2014,06,21,01,56,10.60
2014,06,21,01,57,10.60
2014,06,21,01,58,10.60
2014,06,21,01,59,10.60
2014,06,21,02,00,10.60
2014,06,21,02,01,10.60
2014,06,21,02,02,10.60
2014,06,21,02,03,10.60
2014,06,21,02,04,10.50
2014,06,21,02,05,10.40
2014,06,21,02,06,10.40
2014,06,21,02,07,10.40
2014,06,21,02,08,10.40
2014,06,21,02,09,10.40
2014,06,21,02,10,10.40
2014,06,21,02,11,10.40
2014,06,21,02,12,10.40
2014,06,21,02,13,10.40
2014,06,21,02,14,10.40
2014,06,21,02,15,10.40
2014,06,21,02,16,10.40
2014,06,21,02,17,10.40
2014,06,21,02,18,10.40
2014,06,21,02,19,10.40
2014,06,21,02,20,10.40
2014,06,21,02,21,10.40
2014,06,21,02,22,10.40
2014,06,21,02,23,10.40
2014,06,21,02,24,10.40
2014,06,21,02,25,10.40
2014,06,21,02,26,10.40
2014,06,21,02,27,10.40
2014,06,21,02,28,10.40
2014,06,21,02,29,10.40
2014,06,21,02,30,10.40
2014,06,21,02,31,10.40
2014,06,21,02,32,10.40
2014,06,21,02,33,10.40
2014,06,21,02,34,10.30
2014,06,21,02,35,10.30
2014,06,21,02,36,10.30
2014,06,21,02,37,10.30
2014,06,21,02,38,10.30
2014,06,21,02,39,10.30
2014,06,21,02,40,10.30
2014,06,21,02,41,10.30
2014,06,21,02,42,10.30
2014,06,21,02,43,10.30
2014,06,21,02,44,10.40
2014,06,21,02,45,10.40
2014,06,21,02,46,10.40
2014,06,21,02,47,10.40
2014,06,21,02,48,10.40
2014,06,21,02,49,10.40
2014,06,21,02,50,10.40
2014,06,21,02,51,10.40
2014,06,21,02,52,10.40
2014,06,21,02,53,10.40
2014,06,21,02,54,10.40
2014,06,21,02,55,10.40
2014,06,21,02,56,10.40
2014,06,21,02,57,10.40
2014,06,21,02,58,10.40
2014,06,21,02,59,10.30
2014,06,21,03,00,10.30
2014,06,21,03,01,10.30
2014,06,21,03,02,10.30
2014,06,21,03,03,10.30
2014,06,21,03,04,10.30
2014,06,21,03,05,10.30
2014,06,21,03,06,10.30
2014,06,21,03,07,10.30
2014,06,21,03,08,10.30
2014,06,21,03,09,10.20
2014,06,21,03,10,10.20
2014,06,21,03,11,10.20
2014,06,21,03,12,10.20
2014,06,21,03,13,10.20
2014,06,21,03,14,10.20
2014,06,21,03,15,10.20
2014,06,21,03,16,10.10
2014,06,21,03,17,10.10
2014,06,21,03,18,10.00
2014,06,21,03,19,9.90
2014,06,21,03,20,9.90
2014,06,21,03,21,9.90
2014,06,21,03,22,9.90
2014,06,21,03,23,9.90
2014,06,21,03,24,9.80
2014,06,21,03,25,9.80
2014,06,21,03,26,9.80
2014,06,21,03,27,9.70
2014,06,21,03,28,9.70
2014,06,21,03,29,9.70
2014,06,21,03,30,9.60
2014,06,21,03,31,9.60
2014,06,21,03,32,9.50
2014,06,21,03,33,9.50
2014,06,21,03,34,9.40
2014,06,21,03,35,9.40
2014,06,21,03,36,9.30
2014,06,21,03,37,9.20
2014,06,21,03,38,9.20
2014,06,21,03,39,9.20
2014,06,21,03,40,9.10
2014,06,21,03,41,9.10
2014,06,21,03,42,9.10
2014,06,21,03,43,9.10
2014,06,21,03,44,9.00
2014,06,21,03,45,9.00
2014,06,21,03,46,9.00
2014,06,21,03,47,9.00
2014,06,21,03,48,9.00
2014,06,21,03,49,9.00
2014,06,21,03,50,9.00
2014,06,21,03,51,9.00
2014,06,21,03,52,8.90
2014,06,21,03,53,8.90
2014,06,21,03,54,8.90
2014,06,21,03,55,8.90
2014,06,21,03,56,8.80
2014,06,21,03,57,8.80
2014,06,21,03,58,8.80
2014,06,21,03,59,8.80
2014,06,21,04,00,8.80
2014,06,21,04,01,8.70
2014,06,21,04,02,8.70
2014,06,21,04,03,8.70
2014,06,21,04,04,8.70
2014,06,21,04,05,8.80
2014,06,21,04,06,8.80
2014,06,21,04,07,8.80
2014,06,21,04,08,8.80
2014,06,21,04,09,8.80
2014,06,21,04,10,8.80
2014,06,21,04,11,8.70
2014,06,21,04,12,8.70
2014,06,21,04,13,8.70
2014,06,21,04,14,8.70
2014,06,21,04,15,8.70
2014,06,21,04,16,8.70
2014,06,21,04,17,8.70
2014,06,21,04,18,8.70
2014,06,21,04,19,8.70
2014,06,21,04,20,8.70
2014,06,21,04,21,8.70
2014,06,21,04,22,8.70
2014,06,21,04,23,8.70
2014,06,21,04,24,8.80
2014,06,21,04,25,8.80
2014,06,21,04,26,8.80
2014,06,21,04,27,8.80
2014,06,21,04,28,8.90
2014,06,21,04,29,8.90
2014,06,21,04,30,8.80
2014,06,21,04,31,8.80
2014,06,21,04,32,8.80
2014,06,21,04,33,8.80
2014,06,21,04,34,8.70
2014,06,21,04,35,8.70
2014,06,21,04,36,8.70
2014,06,21,04,37,8.70
2014,06,21,04,38,8.70
2014,06,21,04,39,8.70
2014,06,21,04,40,8.70
2014,06,21,04,41,8.70
2014,06,21,04,42,8.70
2014,06,21,04,43,8.70
2014,06,21,04,44,8.80
2014,06,21,04,45,8.80
2014,06,21,04,46,8.80
2014,06,21,04,47,8.80
2014,06,21,04,48,8.80
2014,06,21,04,49,8.80
2014,06,21,04,50,8.80
2014,06,21,04,51,8.80
2014,06,21,04,52,8.80
2014,06,21,04,53,8.70
2014,06,21,04,54,8.70
2014,06,21,04,55,8.70
2014,06,21,04,56,8.70
2014,06,21,04,57,8.70
2014,06,21,04,58,8.70
2014,06,21,04,59,8.60
2014,06,21,05,00,8.60
2014,06,21,05,01,8.50
2014,06,21,05,02,8.50
2014,06,21,05,03,8.50
2014,06,21,05,04,8.50
2014,06,21,05,05,8.50
2014,06,21,05,06,8.50
2014,06,21,05,07,8.50
2014,06,21,05,08,8.50
2014,06,21,05,09,8.50
2014,06,21,05,10,8.50
2014,06,21,05,11,8.50
2014,06,21,05,12,8.50
2014,06,21,05,13,8.50
2014,06,21,05,14,8.50
2014,06,21,05,15,8.50
2014,06,21,05,16,8.50
2014,06,21,05,17,8.50
2014,06,21,05,18,8.50
2014,06,21,05,19,8.50
2014,06,21,05,20,8.50
2014,06,21,05,21,8.50
2014,06,21,05,22,8.50
2014,06,21,05,23,8.60
2014,06,21,05,24,8.60
2014,06,21,05,25,8.60
2014,06,21,05,26,8.60
2014,06,21,05,27,8.60
2014,06,21,05,28,8.60
2014,06,21,05,29,8.50
2014,06,21,05,30,8.50
2014,06,21,05,31,8.50
2014,06,21,05,32,8.40
2014,06,21,05,33,8.40
2014,06,21,05,34,8.40
2014,06,21,05,35,8.40
2014,06,21,05,36,8.40
2014,06,21,05,37,8.40
2014,06,21,05,38,8.40
2014,06,21,05,39,8.40
2014,06,21,05,40,8.30
2014,06,21,05,41,8.30
2014,06,21,05,42,8.30
2014,06,21,05,43,8.30
2014,06,21,05,44,8.30
2014,06,21,05,45,8.30
2014,06,21,05,46,8.30
2014,06,21,05,47,8.30
2014,06,21,05,48,8.30
2014,06,21,05,49,8.30
2014,06,21,05,50,8.40
2014,06,21,05,51,8.40
2014,06,21,05,52,8.40
2014,06,21,05,53,8.40
2014,06,21,05,54,8.40
2014,06,21,05,55,8.40
2014,06,21,05,56,8.50
2014,06,21,05,57,8.50
2014,06,21,05,58,8.50
2014,06,21,05,59,8.50
2014,06,21,06,00,8.50
2014,06,21,06,01,8.50
2014,06,21,06,02,8.50
2014,06,21,06,03,8.50
2014,06,21,06,04,8.60
2014,06,21,06,05,8.60
2014,06,21,06,06,8.60
2014,06,21,06,07,8.60
2014,06,21,06,08,8.70
2014,06,21,06,09,8.70
2014,06,21,06,10,8.70
2014,06,21,06,11,8.70
2014,06,21,06,12,8.80
2014,06,21,06,13,8.80
2014,06,21,06,14,8.80
2014,06,21,06,15,8.90
2014,06,21,06,16,8.90
2014,06,21,06,17,8.90
2014,06,21,06,18,9.00
2014,06,21,06,19,9.00
2014,06,21,06,20,9.10
2014,06,21,06,21,9.10
2014,06,21,06,22,9.20
2014,06,21,06,23,9.20
2014,06,21,06,24,9.30
2014,06,21,06,25,9.30
2014,06,21,06,26,9.40
2014,06,21,06,27,9.40
2014,06,21,06,28,9.50
2014,06,21,06,29,9.50
2014,06,21,06,30,9.60
2014,06,21,06,31,9.60
2014,06,21,06,32,9.70
2014,06,21,06,33,9.70
2014,06,21,06,34,9.70
2014,06,21,06,35,9.80
2014,06,21,06,36,9.90
2014,06,21,06,37,9.90
2014,06,21,06,38,10.00
2014,06,21,06,39,10.10
2014,06,21,06,40,10.10
2014,06,21,06,41,10.20
2014,06,21,06,42,10.20
2014,06,21,06,43,10.30
2014,06,21,06,44,10.30
2014,06,21,06,45,10.40
2014,06,21,06,46,10.40
2014,06,21,06,47,10.40
2014,06,21,06,48,10.50
2014,06,21,06,49,10.60
2014,06,21,06,50,10.60
2014,06,21,06,51,10.70
2014,06,21,06,52,10.80
2014,06,21,06,53,10.90
2014,06,21,06,54,10.90
2014,06,21,06,55,11.00
2014,06,21,06,56,11.10
2014,06,21,06,57,11.10
2014,06,21,06,58,11.20
2014,06,21,06,59,11.20
2014,06,21,07,00,11.20
2014,06,21,07,01,11.20
2014,06,21,07,02,11.30
2014,06,21,07,03,11.30
2014,06,21,07,04,11.30
2014,06,21,07,05,11.30
2014,06,21,07,06,11.40
2014,06,21,07,07,11.40
2014,06,21,07,08,11.40
2014,06,21,07,09,11.40
2014,06,21,07,10,11.40
2014,06,21,07,11,11.40
2014,06,21,07,12,11.40
2014,06,21,07,13,11.40
2014,06,21,07,14,11.40
2014,06,21,07,15,11.50
2014,06,21,07,16,11.60
2014,06,21,07,17,11.60
2014,06,21,07,18,11.60
2014,06,21,07,19,11.70
2014,06,21,07,20,11.70
2014,06,21,07,21,11.80
2014,06,21,07,22,11.80
2014,06,21,07,23,11.80
2014,06,21,07,24,11.80
2014,06,21,07,25,11.90
2014,06,21,07,26,11.90
2014,06,21,07,27,12.00
2014,06,21,07,28,12.00
2014,06,21,07,29,12.10
2014,06,21,07,30,12.10
2014,06,21,07,31,12.20
2014,06,21,07,32,12.20
2014,06,21,07,33,12.30
2014,06,21,07,34,12.30
2014,06,21,07,35,12.30
2014,06,21,07,36,12.30
2014,06,21,07,37,12.30
2014,06,21,07,38,12.30
2014,06,21,07,39,12.40
2014,06,21,07,40,12.40
2014,06,21,07,41,12.30
2014,06,21,07,42,12.40
2014,06,21,07,43,12.40
2014,06,21,07,44,12.40
2014,06,21,07,45,12.40
2014,06,21,07,46,12.50
2014,06,21,07,47,12.50
2014,06,21,07,48,12.50
2014,06,21,07,49,12.50
2014,06,21,07,50,12.50
2014,06,21,07,51,12.60
2014,06,21,07,52,12.60
2014,06,21,07,53,12.70
2014,06,21,07,54,12.80
2014,06,21,07,55,12.80
2014,06,21,07,56,12.90
2014,06,21,07,57,13.00
2014,06,21,07,58,13.00
2014,06,21,07,59,13.10
2014,06,21,08,00,13.20
2014,06,21,08,01,13.30
2014,06,21,08,02,13.40
2014,06,21,08,03,13.50
2014,06,21,08,04,13.60
2014,06,21,08,05,13.70
2014,06,21,08,06,13.70
2014,06,21,08,07,13.80
2014,06,21,08,08,13.80
2014,06,21,08,09,13.90
2014,06,21,08,10,13.90
2014,06,21,08,11,13.90
2014,06,21,08,12,13.90
2014,06,21,08,13,13.90
2014,06,21,08,14,13.90
2014,06,21,08,15,13.90
2014,06,21,08,16,13.90
2014,06,21,08,17,13.90
2014,06,21,08,18,13.90
2014,06,21,08,19,13.90
2014,06,21,08,20,14.00
2014,06,21,08,21,14.10
2014,06,21,08,22,14.20
2014,06,21,08,23,14.30
2014,06,21,08,24,14.40
2014,06,21,08,25,14.50
2014,06,21,08,26,14.50
2014,06,21,08,27,14.40
2014,06,21,08,28,14.40
2014,06,21,08,29,14.50
2014,06,21,08,30,14.50
2014,06,21,08,31,14.40
2014,06,21,08,32,14.20
2014,06,21,08,33,14.20
2014,06,21,08,34,14.10
2014,06,21,08,35,14.00
2014,06,21,08,36,13.90
2014,06,21,08,37,13.80
2014,06,21,08,38,13.70
2014,06,21,08,39,13.70
2014,06,21,08,40,13.60
2014,06,21,08,41,13.60
2014,06,21,08,42,13.50
2014,06,21,08,43,13.40
2014,06,21,08,44,13.30
2014,06,21,08,45,13.30
2014,06,21,08,46,13.20
2014,06,21,08,47,13.20
2014,06,21,08,48,13.20
2014,06,21,08,49,13.20
2014,06,21,08,50,13.10
2014,06,21,08,51,13.10
2014,06,21,08,52,13.10
2014,06,21,08,53,13.10
2014,06,21,08,54,13.20
2014,06,21,08,55,13.10
2014,06,21,08,56,13.00
2014,06,21,08,57,13.00
2014,06,21,08,58,12.90
2014,06,21,08,59,12.90
2014,06,21,09,00,12.80
2014,06,21,09,01,12.70
2014,06,21,09,02,12.60
2014,06,21,09,03,12.50
2014,06,21,09,04,12.50
2014,06,21,09,05,12.50
2014,06,21,09,06,12.40
2014,06,21,09,07,12.30
2014,06,21,09,08,12.30
2014,06,21,09,09,12.30
2014,06,21,09,10,12.30
2014,06,21,09,11,12.30
2014,06,21,09,12,12.30
2014,06,21,09,13,12.40
2014,06,21,09,14,12.40
2014,06,21,09,15,12.30
2014,06,21,09,16,12.30
2014,06,21,09,17,12.30
2014,06,21,09,18,12.30
2014,06,21,09,19,12.30
2014,06,21,09,20,12.30
2014,06,21,09,21,12.30
2014,06,21,09,22,12.30
2014,06,21,09,23,12.30
2014,06,21,09,24,12.30
2014,06,21,09,25,12.30
2014,06,21,09,26,12.40
2014,06,21,09,27,12.40
2014,06,21,09,28,12.50
2014,06,21,09,29,12.60
2014,06,21,09,30,12.70
2014,06,21,09,31,12.70
2014,06,21,09,32,12.80
2014,06,21,09,33,12.90
2014,06,21,09,34,12.90
2014,06,21,09,35,13.00
2014,06,21,09,36,13.00
2014,06,21,09,37,13.00
2014,06,21,09,38,13.00
2014,06,21,09,39,13.10
2014,06,21,09,40,13.20
2014,06,21,09,41,13.20
2014,06,21,09,42,13.40
2014,06,21,09,43,13.40
2014,06,21,09,44,13.40
2014,06,21,09,45,13.30
2014,06,21,09,46,13.30
2014,06,21,09,47,13.40
2014,06,21,09,48,13.40
2014,06,21,09,49,13.40
2014,06,21,09,50,13.50
2014,06,21,09,51,13.50
2014,06,21,09,52,13.50
2014,06,21,09,53,13.50
2014,06,21,09,54,13.60
2014,06,21,09,55,13.60
2014,06,21,09,56,13.70
2014,06,21,09,57,13.60
2014,06,21,09,58,13.50
2014,06,21,09,59,13.30
2014,06,21,10,00,13.30
2014,06,21,10,01,13.30
2014,06,21,10,02,13.20
2014,06,21,10,03,13.20
2014,06,21,10,04,13.30
2014,06,21,10,05,13.40
2014,06,21,10,06,13.50
2014,06,21,10,07,13.50
2014,06,21,10,08,13.60
2014,06,21,10,09,13.60
2014,06,21,10,10,13.60
2014,06,21,10,11,13.70
2014,06,21,10,12,13.60
2014,06,21,10,13,13.50
2014,06,21,10,14,13.40
2014,06,21,10,15,13.20
2014,06,21,10,16,13.10
2014,06,21,10,17,13.10
2014,06,21,10,18,13.10
2014,06,21,10,19,13.20
2014,06,21,10,20,13.20
2014,06,21,10,21,13.30
2014,06,21,10,22,13.30
2014,06,21,10,23,13.30
2014,06,21,10,24,13.40
2014,06,21,10,25,13.50
2014,06,21,10,26,13.60
2014,06,21,10,27,13.70
2014,06,21,10,28,13.60
2014,06,21,10,29,13.60
2014,06,21,10,30,13.50
2014,06,21,10,31,13.60
2014,06,21,10,32,13.60
2014,06,21,10,33,13.70
2014,06,21,10,34,13.70
2014,06,21,10,35,13.70
2014,06,21,10,36,13.60
2014,06,21,10,37,13.60
2014,06,21,10,38,13.50
2014,06,21,10,39,13.40
2014,06,21,10,40,13.50
2014,06,21,10,41,13.50
2014,06,21,10,42,13.50
2014,06,21,10,43,13.40
2014,06,21,10,44,13.50
2014,06,21,10,45,13.50
2014,06,21,10,46,13.60
2014,06,21,10,47,13.70
2014,06,21,10,48,13.70
2014,06,21,10,49,13.80
2014,06,21,10,50,13.80
2014,06,21,10,51,13.80
2014,06,21,10,52,13.70
2014,06,21,10,53,13.80
2014,06,21,10,54,13.80
2014,06,21,10,55,13.90
2014,06,21,10,56,13.90
2014,06,21,10,57,14.10
2014,06,21,10,58,14.20
2014,06,21,10,59,14.40
2014,06,21,11,00,14.60
2014,06,21,11,01,14.70
2014,06,21,11,02,14.80
2014,06,21,11,03,14.80
2014,06,21,11,04,14.80
2014,06,21,11,05,14.80
2014,06,21,11,06,14.60
2014,06,21,11,07,14.40
2014,06,21,11,08,14.30
2014,06,21,11,09,14.30
2014,06,21,11,10,14.20
2014,06,21,11,11,14.20
2014,06,21,11,12,14.30
2014,06,21,11,13,14.40
2014,06,21,11,14,14.30
2014,06,21,11,15,14.10
2014,06,21,11,16,13.90
2014,06,21,11,17,13.90
2014,06,21,11,18,13.70
2014,06,21,11,19,13.70
2014,06,21,11,20,13.70
2014,06,21,11,21,13.60
2014,06,21,11,22,13.60
2014,06,21,11,23,13.60
2014,06,21,11,24,13.60
2014,06,21,11,25,13.70
2014,06,21,11,26,13.60
2014,06,21,11,27,13.60
2014,06,21,11,28,13.60
2014,06,21,11,29,13.60
2014,06,21,11,30,13.60
2014,06,21,11,31,13.60
2014,06,21,11,32,13.70
2014,06,21,11,33,13.70
2014,06,21,11,34,13.60
2014,06,21,11,35,13.60
2014,06,21,11,36,13.60
2014,06,21,11,37,13.60
2014,06,21,11,38,13.60
2014,06,21,11,39,13.70
2014,06,21,11,40,13.70
2014,06,21,11,41,13.70
2014,06,21,11,42,13.60
2014,06,21,11,43,13.60
2014,06,21,11,44,13.60
2014,06,21,11,45,13.60
2014,06,21,11,46,13.60
2014,06,21,11,47,13.70
2014,06,21,11,48,13.80
2014,06,21,11,49,13.90
2014,06,21,11,50,13.90
2014,06,21,11,51,13.90
2014,06,21,11,52,13.90
2014,06,21,11,53,13.90
2014,06,21,11,54,14.00
2014,06,21,11,55,14.00
2014,06,21,11,56,14.10
2014,06,21,11,57,14.10
2014,06,21,11,58,14.10
2014,06,21,11,59,14.00
2014,06,21,12,00,14.10
2014,06,21,12,01,14.00
2014,06,21,12,02,14.10
2014,06,21,12,03,14.20
2014,06,21,12,04,14.40
2014,06,21,12,05,14.40
2014,06,21,12,06,14.40
2014,06,21,12,07,14.20
2014,06,21,12,08,14.20
2014,06,21,12,09,14.20
2014,06,21,12,10,14.20
2014,06,21,12,11,14.30
2014,06,21,12,12,14.30
2014,06,21,12,13,14.40
2014,06,21,12,14,14.40
2014,06,21,12,15,14.50
2014,06,21,12,16,14.60
2014,06,21,12,17,14.70
2014,06,21,12,18,14.60
2014,06,21,12,19,14.50
2014,06,21,12,20,14.30
2014,06,21,12,21,14.30
2014,06,21,12,22,14.20
2014,06,21,12,23,14.20
2014,06,21,12,24,14.20
2014,06,21,12,25,14.20
2014,06,21,12,26,14.10
2014,06,21,12,27,14.00
2014,06,21,12,28,14.00
2014,06,21,12,29,14.00
2014,06,21,12,30,14.00
2014,06,21,12,31,13.80
2014,06,21,12,32,13.70
2014,06,21,12,33,13.80
2014,06,21,12,34,13.80
2014,06,21,12,35,13.90
2014,06,21,12,36,14.00
2014,06,21,12,37,14.20
2014,06,21,12,38,14.20
2014,06,21,12,39,14.30
2014,06,21,12,40,14.20
2014,06,21,12,41,14.20
2014,06,21,12,42,14.10
2014,06,21,12,43,14.10
2014,06,21,12,44,14.00
2014,06,21,12,45,13.90
2014,06,21,12,46,13.90
2014,06,21,12,47,13.80
2014,06,21,12,48,13.70
2014,06,21,12,49,13.80
2014,06,21,12,50,13.90
2014,06,21,12,51,14.10
2014,06,21,12,52,14.20
2014,06,21,12,53,14.20
2014,06,21,12,54,14.30
2014,06,21,12,55,14.40
2014,06,21,12,56,14.40
2014,06,21,12,57,14.50
2014,06,21,12,58,14.60
2014,06,21,12,59,14.60
2014,06,21,13,00,14.60
2014,06,21,13,01,14.50
2014,06,21,13,02,14.30
2014,06,21,13,03,14.20
2014,06,21,13,04,14.20
2014,06,21,13,05,14.30
2014,06,21,13,06,14.30
2014,06,21,13,07,14.50
2014,06,21,13,08,14.50
2014,06,21,13,09,14.60
2014,06,21,13,10,14.60
2014,06,21,13,11,14.50
2014,06,21,13,12,14.40
2014,06,21,13,13,14.20
2014,06,21,13,14,14.10
2014,06,21,13,15,14.00
2014,06,21,13,16,13.90
2014,06,21,13,17,13.80
2014,06,21,13,18,13.70
2014,06,21,13,19,13.70
2014,06,21,13,20,13.80
2014,06,21,13,21,13.90
2014,06,21,13,22,14.00
2014,06,21,13,23,14.20
2014,06,21,13,24,14.50
2014,06,21,13,25,14.50
2014,06,21,13,26,14.60
2014,06,21,13,27,14.70
2014,06,21,13,28,14.90
2014,06,21,13,29,14.90
2014,06,21,13,30,15.00
2014,06,21,13,31,15.10
2014,06,21,13,32,15.20
2014,06,21,13,33,15.20
2014,06,21,13,34,15.20
2014,06,21,13,35,15.10
2014,06,21,13,36,15.00
2014,06,21,13,37,14.80
2014,06,21,13,38,14.70
2014,06,21,13,39,14.70
2014,06,21,13,40,14.70
2014,06,21,13,41,14.70
2014,06,21,13,42,14.80
2014,06,21,13,43,14.90
2014,06,21,13,44,14.90
2014,06,21,13,45,15.00
2014,06,21,13,46,15.10
2014,06,21,13,47,15.10
2014,06,21,13,48,15.20
2014,06,21,13,49,15.20
2014,06,21,13,50,15.30
2014,06,21,13,51,15.20
2014,06,21,13,52,15.20
2014,06,21,13,53,15.20
2014,06,21,13,54,15.20
2014,06,21,13,55,15.20
2014,06,21,13,56,15.20
2014,06,21,13,57,15.20
2014,06,21,13,58,15.20
2014,06,21,13,59,15.20
2014,06,21,14,00,15.00
2014,06,21,14,01,14.80
2014,06,21,14,02,14.60
2014,06,21,14,03,14.40
2014,06,21,14,04,14.30
2014,06,21,14,05,14.30
2014,06,21,14,06,14.30
2014,06,21,14,07,14.40
2014,06,21,14,08,14.30
2014,06,21,14,09,14.30
2014,06,21,14,10,14.20
2014,06,21,14,11,14.10
2014,06,21,14,12,14.10
2014,06,21,14,13,14.00
2014,06,21,14,14,14.00
2014,06,21,14,15,14.00
2014,06,21,14,16,14.00
2014,06,21,14,17,14.10
2014,06,21,14,18,14.10
2014,06,21,14,19,14.10
2014,06,21,14,20,14.20
2014,06,21,14,21,14.20
2014,06,21,14,22,14.10
2014,06,21,14,23,14.10
2014,06,21,14,24,14.10
2014,06,21,14,25,14.20
2014,06,21,14,26,14.10
2014,06,21,14,27,13.90
2014,06,21,14,28,13.80
2014,06,21,14,29,13.70
2014,06,21,14,30,13.60
2014,06,21,14,31,13.70
2014,06,21,14,32,13.70
2014,06,21,14,33,13.70
2014,06,21,14,34,13.70
2014,06,21,14,35,13.70
2014,06,21,14,36,13.80
2014,06,21,14,37,13.80
2014,06,21,14,38,13.80
2014,06,21,14,39,13.70
2014,06,21,14,40,13.80
2014,06,21,14,41,13.90
2014,06,21,14,42,14.10
2014,06,21,14,43,14.30
2014,06,21,14,44,14.30
2014,06,21,14,45,14.20
2014,06,21,14,46,14.20
2014,06,21,14,47,14.10
2014,06,21,14,48,14.00
2014,06,21,14,49,14.00
2014,06,21,14,50,14.00
2014,06,21,14,51,14.00
2014,06,21,14,52,14.00
2014,06,21,14,53,14.00
2014,06,21,14,54,14.10
2014,06,21,14,55,14.20
2014,06,21,14,56,14.40
2014,06,21,14,57,14.50
2014,06,21,14,58,14.50
2014,06,21,14,59,14.60
2014,06,21,15,00,14.60
2014,06,21,15,01,14.70
2014,06,21,15,02,14.80
2014,06,21,15,03,14.90
2014,06,21,15,04,15.10
2014,06,21,15,05,15.10
2014,06,21,15,06,15.10
2014,06,21,15,07,15.00
2014,06,21,15,08,15.00
2014,06,21,15,09,15.00
2014,06,21,15,10,14.90
2014,06,21,15,11,14.70
2014,06,21,15,12,14.60
2014,06,21,15,13,14.50
2014,06,21,15,14,14.50
2014,06,21,15,15,14.50
2014,06,21,15,16,14.50
2014,06,21,15,17,14.60
2014,06,21,15,18,14.60
2014,06,21,15,19,14.70
2014,06,21,15,20,14.80
2014,06,21,15,21,14.80
2014,06,21,15,22,14.80
2014,06,21,15,23,14.80
2014,06,21,15,24,14.80
2014,06,21,15,25,14.80
2014,06,21,15,26,14.80
2014,06,21,15,27,14.80
2014,06,21,15,28,14.80
2014,06,21,15,29,14.80
2014,06,21,15,30,14.80
2014,06,21,15,31,14.70
2014,06,21,15,32,14.80
2014,06,21,15,33,14.80
2014,06,21,15,34,14.80
2014,06,21,15,35,14.80
2014,06,21,15,36,14.80
2014,06,21,15,37,14.80
2014,06,21,15,38,14.80
2014,06,21,15,39,14.80
2014,06,21,15,40,14.80
2014,06,21,15,41,14.90
2014,06,21,15,42,15.00
2014,06,21,15,43,15.10
2014,06,21,15,44,15.20
2014,06,21,15,45,15.40
2014,06,21,15,46,15.60
2014,06,21,15,47,15.80
2014,06,21,15,48,16.00
2014,06,21,15,49,16.10
2014,06,21,15,50,16.30
2014,06,21,15,51,16.30
2014,06,21,15,52,16.40
2014,06,21,15,53,16.40
2014,06,21,15,54,16.40
2014,06,21,15,55,16.40
2014,06,21,15,56,16.20
2014,06,21,15,57,16.10
2014,06,21,15,58,15.80
2014,06,21,15,59,15.70
2014,06,21,16,00,15.60
2014,06,21,16,01,15.50
2014,06,21,16,02,15.40
2014,06,21,16,03,15.40
2014,06,21,16,04,15.50
2014,06,21,16,05,15.50
2014,06,21,16,06,15.50
2014,06,21,16,07,15.60
2014,06,21,16,08,15.80
2014,06,21,16,09,16.00
2014,06,21,16,10,16.20
2014,06,21,16,11,16.40
2014,06,21,16,12,16.60
2014,06,21,16,13,16.80
2014,06,21,16,14,17.00
2014,06,21,16,15,17.20
2014,06,21,16,16,17.40
2014,06,21,16,17,17.50
2014,06,21,16,18,17.60
2014,06,21,16,19,17.80
2014,06,21,16,20,17.90
2014,06,21,16,21,17.90
2014,06,21,16,22,17.90
2014,06,21,16,23,17.90
2014,06,21,16,24,17.90
2014,06,21,16,25,18.00
2014,06,21,16,26,18.10
2014,06,21,16,27,18.20
2014,06,21,16,28,18.20
2014,06,21,16,29,18.40
2014,06,21,16,30,18.40
2014,06,21,16,31,18.40
2014,06,21,16,32,18.30
2014,06,21,16,33,18.30
2014,06,21,16,34,18.30
2014,06,21,16,35,18.40
2014,06,21,16,36,18.50
2014,06,21,16,37,18.50
2014,06,21,16,38,18.50
2014,06,21,16,39,18.40
2014,06,21,16,40,18.40
2014,06,21,16,41,18.30
2014,06,21,16,42,18.30
2014,06,21,16,43,18.30
2014,06,21,16,44,18.30
2014,06,21,16,45,18.30
2014,06,21,16,46,18.30
2014,06,21,16,47,18.30
2014,06,21,16,48,18.30
2014,06,21,16,49,18.30
2014,06,21,16,50,18.20
2014,06,21,16,51,18.00
2014,06,21,16,52,17.90
2014,06,21,16,53,17.80
2014,06,21,16,54,17.70
2014,06,21,16,55,17.50
2014,06,21,16,56,17.50
2014,06,21,16,57,17.50
2014,06,21,16,58,17.50
2014,06,21,16,59,17.50
2014,06,21,17,00,17.40
2014,06,21,17,01,17.40
2014,06,21,17,02,17.50
2014,06,21,17,03,17.50
2014,06,21,17,04,17.50
2014,06,21,17,05,17.50
2014,06,21,17,06,17.40
2014,06,21,17,07,17.30
2014,06,21,17,08,17.20
2014,06,21,17,09,17.10
2014,06,21,17,10,16.90
2014,06,21,17,11,16.80
2014,06,21,17,12,16.90
2014,06,21,17,13,16.80
2014,06,21,17,14,16.80
2014,06,21,17,15,16.90
2014,06,21,17,16,17.10
2014,06,21,17,17,17.30
2014,06,21,17,18,17.40
2014,06,21,17,19,17.50
2014,06,21,17,20,17.60
2014,06,21,17,21,17.50
2014,06,21,17,22,17.40
2014,06,21,17,23,17.30
2014,06,21,17,24,17.30
2014,06,21,17,25,17.30
2014,06,21,17,26,17.20
2014,06,21,17,27,17.10
2014,06,21,17,28,17.10